7 * 24
多渠道服务支持
STARLINK-32328 是 SpaceX Starlink 卫星互联网项目中的第 32328 颗卫星。该卫星属于星链计划的组网星座,旨在为全球用户提供高速、低延迟的互联网服务。它运行在近地轨道,配备先进通信设备,支持宽带数据传输。作为星链计划的一部分,该卫星有助于扩大覆盖范围,提升网络性能,并推动偏远地区的互联网接入。其发射和运行体现了 SpaceX 在商业航天和全球通信基础设施建设方面的持续进展。
美国
(US)
| 数据来源 | 国际轨道数据 |
| 星历时间: | 2025-11-07T06:16:10+0800 20小时前 查看轨道信息 |
| 半长轴: | 6861.261km |
| 偏心率: | 0.0002272 |
| 轨道倾角: | 43.006° |
| 近地点辐角 | 263.273° |
| 升交点赤经 | 262.533° |
| 平近点角 | 96.786° |
| 近地点: | 481.567km |
| 远地点: | 484.685km |
| 周期: | 94.268分钟 |
| 每日圈数: | 15.275551 |